Volver al catálogo

CZ-4B SEP MOTOR COVER

ActivoSSO
NORAD 44890·DEBRIS·🇨🇳 China
Este nombre de satélite aún no ha sido confirmado por fuentes oficiales.

Lanzado Dec 20, 2019 desde Taiyuan Satellite Launch Center

Loading…

Próximos Pases (próximas 24 horas)

TLE

ActualizadoSource: Space-Track

Época: Sep 14, 2026, 13:05 UTC

1 44890U 19093M   26257.54561990  .00013204  00000-0  48029-3 0  9994
2 44890  97.7734   7.8798 0019058   4.0547 356.0842 15.28213832367926

Sigue CZ-4B SEP MOTOR COVER en tiempo real con AllMySat

Download on the App Store